Find NEXTSAT-2

NORAD ID: 56743 Int'l Des: 2023-072 Owner: KAIST Country: KR operational
LEOCIRCULARRETROGRADESSO

当前视图

正在加载3D地球...

关于 NEXTSAT-2

正在加载描述...

即将过境

Passes for default location (London). Set your location on the main map for personalized predictions.

高度历史

Loading altitude history...

两行轨道根数

1 56743U 23072A 26150.54989213 .00009723 00000-0 36327-3 0 9999
2 56743 97.5252 347.3789 0007282 85.4650 274.7421 15.27551104166905
Epoch: May 30, 2026 • Age: 6 hours

当前状态

高度 490.3 km
速度 7.62 km/s
星下点 -12.93°S, 3.73°W
发射日期 May 25, 2023
运行时间 3 years
类型 other

技术详情

分类 Payload
质量 180.00 kg
干质量 180.00 kg
总质量 180.00 kg
长度 0.97 m
直径 1.34 m
跨度 5.20 m
形状 Box+pan
制造商 SATREC
平台类型 NEXTSat
阶段状态 In Orbit
所有者/国家 KAIST/KR

Most Searched